• In Hungary
  • List of Countries
  • For 7 days
  • Water Temperature
  • Satellite Maps
  • Weather Map
  • News
  • Weather Widgets
  • user-avatar
    Login

    Hourly Weather Pochaev

    Today, 23 September, Sunday

    Time Temperature Precipitation Wind Pressure Humidity
    00:00 +7°C° 0 mm 3 mps 733 mmHg 89%
    01:00 +7°C° 0 mm 3 mps 733 mmHg 87%
    02:00 +7°C° 0 mm 3 mps 733 mmHg 85%
    03:00 +7°C° 0 mm 3 mps 733 mmHg 86%
    04:00 +7°C° 0 mm 3 mps 733 mmHg 87%
    05:00 +7°C° 0 mm 3 mps 732 mmHg 87%
    06:00 +8°C° 0 mm 3 mps 732 mmHg 84%
    07:00 +9°C° 0 mm 3 mps 732 mmHg 81%
    08:00 +10°C° 0 mm 3 mps 733 mmHg 78%
    09:00 +11°C° 0 mm 4 mps 733 mmHg 71%
    10:00 +13°C° 0 mm 4 mps 733 mmHg 64%
    11:00 +15°C° 0 mm 5 mps 733 mmHg 57%
    12:00 +15°C° 0.1 mm 5 mps 732 mmHg 55%
    13:00 +16°C° 0.1 mm 5 mps 732 mmHg 53%
    14:00 +16°C° 0.1 mm 5 mps 732 mmHg 51%
    15:00 +17°C° 0 mm 4 mps 731 mmHg 54%
    16:00 +17°C° 0 mm 4 mps 731 mmHg 57%
    17:00 +16°C° 0 mm 3 mps 731 mmHg 60%
    18:00 +14°C° 0 mm 3 mps 730 mmHg 63%
    19:00 +13°C° 0 mm 3 mps 730 mmHg 66%
    20:00 +12°C° 0 mm 3 mps 729 mmHg 69%
    21:00 +13°C° 0.1 mm 4 mps 728 mmHg 67%
    22:00 +13°C° 0.1 mm 5 mps 727 mmHg 66%
    23:00 +13°C° 0.1 mm 6 mps 727 mmHg 64%

    Tomorrow, 24 September, Monday

    Time Temperature Precipitation Wind Pressure Humidity
    00:00 +14°C° 0 mm 6 mps 725 mmHg 61%
    01:00 +14°C° 0 mm 7 mps 724 mmHg 59%
    02:00 +13°C° 0 mm 8 mps 723 mmHg 56%
    03:00 +14°C° 1 mm 7 mps 722 mmHg 62%
    04:00 +14°C° 1 mm 7 mps 721 mmHg 67%
    05:00 +14°C° 1 mm 7 mps 720 mmHg 73%
    06:00 +13°C° 1.1 mm 8 mps 720 mmHg 77%
    07:00 +13°C° 1.1 mm 9 mps 720 mmHg 81%
    08:00 +15°C° 1.1 mm 9 mps 721 mmHg 85%
    09:00 +12°C° 0.2 mm 10 mps 722 mmHg 83%
    10:00 +11°C° 0.2 mm 10 mps 723 mmHg 82%
    11:00 +8°C° 0.2 mm 10 mps 725 mmHg 81%
    12:00 +9°C° 0.1 mm 10 mps 725 mmHg 75%
    13:00 +9°C° 0.1 mm 10 mps 726 mmHg 70%
    14:00 +11°C° 0.1 mm 9 mps 727 mmHg 64%
    15:00 +11°C° 0.2 mm 9 mps 728 mmHg 66%
    16:00 +10°C° 0.2 mm 9 mps 728 mmHg 67%
    17:00 +10°C° 0.2 mm 8 mps 728 mmHg 69%
    18:00 +9°C° 0.1 mm 8 mps 729 mmHg 70%
    19:00 +8°C° 0.1 mm 7 mps 730 mmHg 71%
    20:00 +7°C° 0.1 mm 6 mps 730 mmHg 72%
    21:00 +6°C° 0 mm 7 mps 730 mmHg 71%
    22:00 +5°C° 0 mm 7 mps 730 mmHg 71%
    23:00 +5°C° 0 mm 7 mps 731 mmHg 71%

    Day after tomorrow, 25 September, Tuesday

    Time Temperature Precipitation Wind Pressure Humidity
    00:00 +5°C° 0 mm 7 mps 731 mmHg 73%
    01:00 +4°C° 0 mm 7 mps 731 mmHg 75%
    02:00 +4°C° 0 mm 7 mps 731 mmHg 76%
    03:00 +4°C° 0.5 mm 8 mps 732 mmHg 79%
    04:00 +4°C° 0.5 mm 8 mps 732 mmHg 82%
    05:00 +3°C° 0.5 mm 9 mps 733 mmHg 85%
    06:00 +4°C° 0.3 mm 8 mps 734 mmHg 83%
    07:00 +4°C° 0.3 mm 8 mps 735 mmHg 81%
    08:00 +2°C° 0.3 mm 8 mps 735 mmHg 79%
    09:00 +4°C° 0.1 mm 8 mps 736 mmHg 73%
    10:00 +6°C° 0.1 mm 8 mps 737 mmHg 67%
    11:00 +7°C° 0.1 mm 8 mps 737 mmHg 61%
    12:00 +7°C° 0.2 mm 8 mps 738 mmHg 60%
    13:00 +7°C° 0.2 mm 8 mps 738 mmHg 58%
    14:00 +7°C° 0.2 mm 8 mps 738 mmHg 57%
    15:00 +7°C° 0.1 mm 8 mps 738 mmHg 59%
    16:00 +8°C° 0.1 mm 7 mps 739 mmHg 61%
    17:00 +6°C° 0.1 mm 7 mps 739 mmHg 62%
    18:00 +5°C° 0 mm 6 mps 740 mmHg 66%
    19:00 +5°C° 0 mm 5 mps 740 mmHg 70%
    20:00 +5°C° 0 mm 5 mps 741 mmHg 73%
    21:00 +3°C° 0 mm 5 mps 741 mmHg 75%
    22:00 +3°C° 0 mm 5 mps 741 mmHg 76%
    23:00 +4°C° 0 mm 4 mps 742 mmHg 77%

    26 September, Wednesday

    Time Temperature Precipitation Wind Pressure Humidity
    00:00 +3°C° 0 mm 4 mps 742 mmHg 80%
    01:00 +3°C° 0 mm 4 mps 743 mmHg 82%
    02:00 +3°C° 0 mm 4 mps 743 mmHg 84%
    03:00 +2°C° 0 mm 3 mps 743 mmHg 86%
    04:00 +2°C° 0 mm 3 mps 744 mmHg 88%
    05:00 +1°C° 0 mm 3 mps 744 mmHg 90%
    06:00 +2°C° 0 mm 3 mps 744 mmHg 86%
    07:00 +3°C° 0 mm 3 mps 744 mmHg 82%
    08:00 +3°C° 0 mm 3 mps 745 mmHg 78%
    09:00 +5°C° 0 mm 3 mps 745 mmHg 70%
    10:00 +7°C° 0 mm 4 mps 745 mmHg 61%
    11:00 +10°C° 0 mm 4 mps 745 mmHg 53%
    12:00 +10°C° 0 mm 4 mps 745 mmHg 50%
    13:00 +11°C° 0 mm 4 mps 744 mmHg 48%
    14:00 +11°C° 0 mm 4 mps 744 mmHg 46%
    15:00 +11°C° 0 mm 4 mps 743 mmHg 49%
    16:00 +11°C° 0 mm 3 mps 743 mmHg 52%
    17:00 +10°C° 0 mm 3 mps 742 mmHg 56%
    18:00 +9°C° 0 mm 3 mps 742 mmHg 58%
    19:00 +8°C° 0 mm 3 mps 742 mmHg 60%
    20:00 +7°C° 0 mm 3 mps 741 mmHg 62%
    21:00 +7°C° 0 mm 3 mps 741 mmHg 61%
    22:00 +6°C° 0 mm 4 mps 741 mmHg 59%
    23:00 +6°C° 0 mm 4 mps 741 mmHg 58%

    27 September, Thursday

    Time Temperature Precipitation Wind Pressure Humidity
    00:00 +6°C° 0 mm 4 mps 740 mmHg 57%
    01:00 +6°C° 0 mm 5 mps 740 mmHg 56%
    02:00 +7°C° 0 mm 5 mps 740 mmHg 55%
    03:00 +7°C° 0 mm 5 mps 739 mmHg 54%
    04:00 +7°C° 0 mm 5 mps 739 mmHg 53%
    05:00 +7°C° 0 mm 5 mps 738 mmHg 51%
    06:00 +7°C° 0 mm 6 mps 738 mmHg 51%
    07:00 +8°C° 0 mm 6 mps 738 mmHg 51%
    08:00 +8°C° 0 mm 6 mps 738 mmHg 50%
    09:00 +10°C° 0 mm 7 mps 737 mmHg 48%
    10:00 +11°C° 0 mm 7 mps 737 mmHg 46%
    11:00 +12°C° 0 mm 7 mps 737 mmHg 44%
    12:00 +14°C° 0 mm 7 mps 736 mmHg 44%
    13:00 +15°C° 0 mm 7 mps 736 mmHg 43%
    14:00 +16°C° 0 mm 8 mps 736 mmHg 42%
    15:00 +16°C° 0 mm 7 mps 735 mmHg 45%
    16:00 +15°C° 0 mm 6 mps 735 mmHg 49%
    17:00 +15°C° 0 mm 5 mps 734 mmHg 52%
    18:00 +14°C° 0 mm 5 mps 734 mmHg 53%
    19:00 +13°C° 0 mm 5 mps 734 mmHg 54%
    20:00 +12°C° 0 mm 5 mps 734 mmHg 55%
    21:00 +10°C° 0 mm 5 mps 734 mmHg 55%
    22:00 +10°C° 0 mm 5 mps 734 mmHg 55%
    23:00 +9°C° 0 mm 5 mps 734 mmHg 54%

    28 September, Friday

    Time Temperature Precipitation Wind Pressure Humidity
    00:00 +9°C° 0 mm 5 mps 734 mmHg 55%
    01:00 +9°C° 0 mm 5 mps 734 mmHg 55%
    02:00 +8°C° 0 mm 5 mps 733 mmHg 55%
    03:00 +8°C° 0 mm 4 mps 733 mmHg 56%
    04:00 +8°C° 0 mm 4 mps 733 mmHg 57%
    05:00 +8°C° 0 mm 4 mps 732 mmHg 57%
    06:00 +10°C° 0 mm 4 mps 732 mmHg 57%
    07:00 +9°C° 0 mm 5 mps 732 mmHg 57%
    08:00 +10°C° 0 mm 5 mps 732 mmHg 57%
    09:00 +13°C° 0 mm 6 mps 732 mmHg 57%
    10:00 +15°C° 0 mm 7 mps 732 mmHg 58%
    11:00 +17°C° 0 mm 7 mps 733 mmHg 58%
    12:00 +16°C° 0 mm 7 mps 733 mmHg 63%
    13:00 +15°C° 0 mm 6 mps 733 mmHg 68%
    14:00 +14°C° 0 mm 6 mps 733 mmHg 73%
    15:00 +14°C° 0 mm 5 mps 733 mmHg 75%
    16:00 +13°C° 0 mm 4 mps 733 mmHg 76%
    17:00 +12°C° 0 mm 3 mps 733 mmHg 77%
    18:00 +11°C° 0 mm 3 mps 733 mmHg 79%
    19:00 +10°C° 0 mm 3 mps 733 mmHg 81%
    20:00 +9°C° 0 mm 2 mps 734 mmHg 83%
    21:00 +8°C° 0 mm 2 mps 734 mmHg 83%
    22:00 +8°C° 0 mm 1 mps 734 mmHg 83%
    23:00 +8°C° 0 mm 1 mps 734 mmHg 84%
    Show more